Simultaneous Nadir Overpasses (SNOs) Predictions

Prediction of SNOs between NOAA-20 and NOAA-19 Satellite Orbit:

Table of predicted SNOs for the next 14.0 days since TLE Epoch: 2/23/2018
Index Date (NOAA-20) Time (NOAA-20) Lat,Lon (NOAA-20) SZA (NOAA-20 ) Date (NOAA-19) Time (NOAA-19) Lat,Lon (NOAA-19) SZA (NOAA-19 ) Distance(km) Time Diff (sec)
1 02/28/2018 02:09:54 -80.65, -79.16 88.09 02/28/2018 02:08:40 -80.64, -79.06 88.06 2.04 74
2 02/28/2018 03:00:39 80.65, 88.21 91.90 02/28/2018 02:59:40 80.65, 88.28 91.92 1.23 59
3 02/28/2018 03:51:24 -80.65,-104.57 88.11 02/28/2018 03:50:41 -80.65,-104.47 88.10 2.03 43
4 02/28/2018 04:42:09 80.65, 62.80 91.88 02/28/2018 04:41:41 80.65, 62.87 91.88 1.41 28
5 02/28/2018 05:32:54 -80.66,-129.99 88.13 02/28/2018 05:32:42 -80.65,-129.88 88.14 2.04 12
6 02/28/2018 06:23:39 80.65, 37.38 91.86 02/28/2018 06:23:42 80.65, 37.47 91.84 1.60 3
7 02/28/2018 07:14:24 -80.66,-155.40 88.15 02/28/2018 07:14:43 -80.65,-155.29 88.17 2.07 19
8 02/28/2018 08:05:09 80.65, 11.97 91.84 02/28/2018 08:05:43 80.66, 12.07 91.81 1.82 34
9 02/28/2018 08:55:54 -80.66, 179.19 88.17 02/28/2018 08:56:44 -80.66, 179.31 88.21 2.11 50




NCC Satellite Simultaneous Nadir Overpasses (SNOs) Prediction Service
